WetterOnline ( https://www.wetteronline.de )

Wetter aktuell Istrana

Aktuelles Wetter: Istrana (46m)

6-stündlich | Neueste Meldungen
Ortszeit Temperatur Wetter
So, 26.06. 14:00 32.0° C leicht bewölkt
So, 26.06. 8:00 24.6° C wolkenlos
So, 26.06. 2:00 22.8° C wolkenlos
Sa, 25.06. 20:00 32.0° C wolkenlos
Sa, 25.06. 14:00 33.6° C leicht bewölkt
Sa, 25.06. 8:00 24.4° C wolkenlos
Sa, 25.06. 2:00 22.4° C wolkenlos
Fr, 24.06. 20:00 28.4° C wolkig
Ortszeit Temperatur Wetter
So, 26.06. 19:00 31.6° C leicht bewölkt
So, 26.06. 18:00 32.2° C leicht bewölkt
So, 26.06. 17:00 32.2° C leicht bewölkt
So, 26.06. 16:00 33.2° C leicht bewölkt
So, 26.06. 15:00 33.0° C leicht bewölkt
So, 26.06. 14:00 32.0° C leicht bewölkt
So, 26.06. 13:00 31.0° C leicht bewölkt
Ortszeit Relative Feuchte Sichtweite
So, 26.06. 14:00 48% 30 km
So, 26.06. 8:00 86% 12 km
So, 26.06. 2:00 86% 25 km
Sa, 25.06. 20:00 34% 35 km
Sa, 25.06. 14:00 40% 35 km
Sa, 25.06. 8:00 67% 30 km
Sa, 25.06. 2:00 59% 30 km
Fr, 24.06. 20:00 54% 12 km
Ortszeit Relative Feuchte Sichtweite
So, 26.06. 19:00 54% 30 km
So, 26.06. 18:00 54% 30 km
So, 26.06. 17:00 48% 30 km
So, 26.06. 16:00 45% 30 km
So, 26.06. 15:00 45% 30 km
So, 26.06. 14:00 48% 30 km
So, 26.06. 13:00 58% 30 km
Ortszeit Niederschlagsmenge Niederschlagsart
So, 26.06. 14:00 0.0 l/m2 in 6 Std. -
So, 26.06. 8:00 0.0 l/m2 in 12 Std. -
So, 26.06. 2:00 0.0 l/m2 in 6 Std. -
Sa, 25.06. 20:00 0.0 l/m2 in 12 Std. -
Sa, 25.06. 14:00 0.0 l/m2 in 6 Std. -
Sa, 25.06. 8:00 0.0 l/m2 in 12 Std. -
Sa, 25.06. 2:00 0.0 l/m2 in 6 Std. -
Fr, 24.06. 20:00 0.0 l/m2 in 12 Std. -
Ortszeit Niederschlagsmenge Niederschlagsart
So, 26.06. 19:00 keine Meldung -
So, 26.06. 18:00 keine Meldung -
So, 26.06. 17:00 keine Meldung -
So, 26.06. 16:00 keine Meldung -
So, 26.06. 15:00 keine Meldung -
So, 26.06. 14:00 keine Meldung -
So, 26.06. 13:00 keine Meldung -
Ortszeit Stärke Spitze Richtung
km/h Bft. km/h Grad Sektor
So, 26.06. 14:00 4 1 - 210° SW
So, 26.06. 8:00 11 2 - 30° NO
So, 26.06. 2:00 15 3 - 30° NO
Sa, 25.06. 20:00 7 2 - 190° S
Sa, 25.06. 14:00 9 2 - 200° S
Sa, 25.06. 8:00 7 2 - 330° NW
Sa, 25.06. 2:00 6 1 - 200° S
Fr, 24.06. 20:00 11 2 - 150° SO
Ortszeit Stärke Spitze Richtung
km/h Bft. km/h Grad Sektor
So, 26.06. 19:00 7 2 - 50° NO
So, 26.06. 18:00 7 2 - 110° O
So, 26.06. 17:00 9 2 - 90° O
So, 26.06. 16:00 6 1 - 90° O
So, 26.06. 15:00 7 2 - 110° O
So, 26.06. 14:00 4 1 - 210° SW
So, 26.06. 13:00 9 2 - 30° NO
Ortszeit Untergrenze Bedeckung Gattung
total tief tief mittel hoch
So, 26.06. 14:00 600 m 2/8 2/8 Cu - -
So, 26.06. 8:00 - 0/8 0/8 - - -
So, 26.06. 2:00 - 0/8 0/8 - - -
Sa, 25.06. 20:00 - 0/8 0/8 - - -
Sa, 25.06. 14:00 900 m 2/8 2/8 Cu - -
Sa, 25.06. 8:00 - 0/8 0/8 - - -
Sa, 25.06. 2:00 - 0/8 0/8 - - -
Fr, 24.06. 20:00 750 m 7/8 1/8 Cu Ac Ci
Ortszeit Bedeckungsgrad in Achtel und Wolkenuntergrenze
So, 26.06. 19:00 2(750m)
So, 26.06. 18:00 3(750m)
So, 26.06. 17:00 4(600m)
So, 26.06. 16:00 2(600m)
So, 26.06. 15:00 2(600m)
So, 26.06. 14:00 2(600m)
So, 26.06. 13:00 2(600m)
Ortszeit Luftdruck NN (hPa) Tendenz (hPa in 3 Std.)
So, 26.06. 14:00 1016 - 0,5
So, 26.06. 8:00 1015 + 1,2
So, 26.06. 2:00 1014 + 1,1
Sa, 25.06. 20:00 1011 - 0,3
Sa, 25.06. 14:00 1012 - 0,4
Sa, 25.06. 8:00 1012 + 1,2
Sa, 25.06. 2:00 1010 0,0
Fr, 24.06. 20:00 1009 - 0,2
Ortszeit Luftdruck NN (hPa) Tendenz (hPa in 3 Std.)
So, 26.06. 19:00 1014 - 0,8
So, 26.06. 18:00 1014 - 1,3
So, 26.06. 17:00 1014 - 1,7
So, 26.06. 16:00 1015 - 1,2
So, 26.06. 15:00 1016 - 0,2
So, 26.06. 14:00 1016 - 0,5
So, 26.06. 13:00 1016 - 0,2
Ortszeit Schneehöhe (cm)
So, 26.06. 14:00 -
So, 26.06. 8:00 0
So, 26.06. 2:00 -
Sa, 25.06. 20:00 -
Sa, 25.06. 14:00 -
Sa, 25.06. 8:00 0
Sa, 25.06. 2:00 -
Fr, 24.06. 20:00 -
Ortszeit Schneehöhe (cm)
So, 26.06. 19:00 -
So, 26.06. 18:00 -
So, 26.06. 17:00 -
So, 26.06. 16:00 -
So, 26.06. 15:00 -
So, 26.06. 14:00 -
So, 26.06. 13:00 -
Link zu dieser Seite / Seite empfehlen

Das Wetter in ...